Weather History for Fremont, NE

Change the Weather History Date:

Friday, May 17, 2013

  Actual Average Record
Temperature  
Mean Temperature 76 °F -  
Max Temperature 87 °F 76 °F 92 °F (1964)
Min Temperature 65 °F 53 °F 37 °F (1973)
Cooling Degree Days 10    
Growing Degree Days 26 (Base 50)    
Moisture  
Dew Point 60 °F    
Average Humidity 60    
Maximum Humidity 84    
Minimum Humidity 39    
Precipitation  
Precipitation 0.00 in - - ()
Sea Level Pressure  
Sea Level Pressure 29.85 in    
Wind  
Wind Speed 7 mph (South)    
Max Wind Speed 15 mph    
Max Gust Speed 22 mph    
Visibility 10 miles    
Events      
Averages and records for this station are not official NWS values.
T = Trace of Precipitation, MM = Missing Value Source: NWS Daily Summary

Daily Weather History Graph

Daily Weather History Graph

Search for Another Location

Airport:

Trip Planner

Search our weather history database for the weather conditions in past years. The results will help you decide how hot, cold, wet, or windy it might be!

Date:

Astronomy

May. 17, 2013 Rise Set
Actual Time 6:04 AM CDT 8:40 PM CDT
Civil Twilight 5:33 AM CDT 9:12 PM CDT
Nautical Twilight 4:53 AM CDT 9:52 PM CDT
Astronomical Twilight 4:08 AM CDT 10:37 PM CDT
Moon 12:40 PM CDT (5/17) 1:32 AM CDT (5/17)
Length of Visible Light 15h 39m
Length of Day
14h 35m
Waxing Crescent, 45% of the Moon is Illuminated
May 17
Waxing Crescent
May 17
First Quarter
May 24
Full
May 31
Last Quarter
Jun 8
New

Hourly Weather History & Observations

Time (CDT) Temp. Heat Index Dew Point Humidity Pressure Visibility Wind Dir Wind Speed Gust Speed Precip Events Conditions
12:15 AM 68.7 °F - 61.9 °F 79% 29.83 in 10.0 mi Calm Calm - N/A   Clear
12:35 AM 70.0 °F - 61.7 °F 75% 29.82 in 10.0 mi SSE 4.6 mph - N/A   Clear
12:55 AM 71.2 °F - 61.2 °F 70% 29.82 in 10.0 mi South 6.9 mph - N/A   Clear
1:15 AM 72.0 °F - 61.0 °F 68% 29.82 in 10.0 mi SSW 8.1 mph - N/A   Clear
1:35 AM 71.8 °F - 60.8 °F 68% 29.82 in 10.0 mi SSW 8.1 mph - N/A   Clear
1:55 AM 71.1 °F - 60.8 °F 70% 29.82 in 10.0 mi South 6.9 mph - N/A   Clear
2:15 AM 70.9 °F - 60.8 °F 70% 29.82 in 10.0 mi SW 8.1 mph - N/A   Clear
2:35 AM 70.7 °F - 60.8 °F 71% 29.82 in 10.0 mi South 5.8 mph - N/A   Clear
2:55 AM 69.6 °F - 61.0 °F 74% 29.82 in 10.0 mi South 3.5 mph - N/A   Clear
3:15 AM 68.9 °F - 61.0 °F 76% 29.82 in 10.0 mi South 3.5 mph - N/A   Clear
3:35 AM 68.9 °F - 61.0 °F 76% 29.83 in 10.0 mi South 3.5 mph - N/A   Clear
3:55 AM 68.0 °F - 60.8 °F 78% 29.83 in 10.0 mi South 3.5 mph - N/A   Clear
4:15 AM 67.3 °F - 60.6 °F 79% 29.84 in 10.0 mi South 4.6 mph - N/A   Clear
4:35 AM 67.3 °F - 60.8 °F 80% 29.84 in 10.0 mi South 5.8 mph - N/A   Clear
4:55 AM 67.1 °F - 60.4 °F 79% 29.84 in 10.0 mi SSW 6.9 mph - N/A   Clear
5:15 AM 67.1 °F - 60.4 °F 79% 29.84 in 10.0 mi South 4.6 mph - N/A   Clear
5:35 AM 66.7 °F - 60.4 °F 80% 29.85 in 10.0 mi South 5.8 mph - N/A   Clear
5:55 AM 66.4 °F - 60.3 °F 81% 29.85 in 10.0 mi South 5.8 mph - N/A   Clear
6:15 AM 66.2 °F - 60.4 °F 82% 29.86 in 10.0 mi SSW 6.9 mph - N/A   Clear
6:35 AM 65.7 °F - 60.4 °F 83% 29.87 in 10.0 mi SSW 5.8 mph - N/A   Clear
7:15 AM 65.7 °F - 60.6 °F 84% 29.88 in 10.0 mi SSW 5.8 mph - N/A   Clear
7:35 AM 65.8 °F - 60.8 °F 84% 29.89 in 10.0 mi South 5.8 mph - N/A   Clear
7:55 AM 66.2 °F - 60.8 °F 83% 29.89 in 10.0 mi SSW 5.8 mph - N/A   Clear
8:15 AM 66.9 °F - 61.2 °F 82% 29.89 in 10.0 mi South 6.9 mph - N/A   Scattered Clouds
8:35 AM 67.6 °F - 61.7 °F 81% 29.89 in 10.0 mi South 4.6 mph - N/A   Clear
8:55 AM 69.3 °F - 62.4 °F 79% 29.90 in 10.0 mi SSW 3.5 mph - N/A   Clear
9:15 AM 72.5 °F - 63.3 °F 73% 29.90 in 10.0 mi SW 9.2 mph - N/A   Clear
9:35 AM 74.1 °F - 63.1 °F 68% 29.89 in 10.0 mi South 6.9 mph - N/A   Clear
9:55 AM 75.9 °F - 62.8 °F 64% 29.89 in 10.0 mi South 9.2 mph - N/A   Clear
10:15 AM 76.6 °F - 61.9 °F 60% 29.89 in 10.0 mi South 9.2 mph - N/A   Clear
10:35 AM 78.3 °F - 62.8 °F 59% 29.89 in 10.0 mi South 10.4 mph - N/A   Clear
10:55 AM 79.0 °F - 60.3 °F 53% 29.89 in 10.0 mi SSE 11.5 mph 16.1 mph N/A   Clear
11:15 AM 79.2 °F - 60.4 °F 53% 29.89 in 10.0 mi South 9.2 mph - N/A   Clear
11:35 AM 80.2 °F 81.1 °F 60.6 °F 51% 29.89 in 10.0 mi South 11.5 mph 18.4 mph N/A   Clear
11:55 AM 81.0 °F 81.3 °F 59.2 °F 47% 29.88 in 10.0 mi SSE 13.8 mph 19.6 mph N/A   Clear
12:15 PM 81.3 °F 81.6 °F 59.0 °F 46% 29.88 in 10.0 mi South 11.5 mph 17.3 mph N/A   Clear
12:35 PM 82.2 °F 82.3 °F 59.2 °F 45% 29.87 in 10.0 mi SSE 10.4 mph 18.4 mph N/A   Clear
12:55 PM 82.4 °F 82.5 °F 59.4 °F 45% 29.87 in 10.0 mi SSE 8.1 mph - N/A   Clear
1:15 PM 82.6 °F 82.5 °F 58.6 °F 44% 29.86 in 10.0 mi South 13.8 mph - N/A   Scattered Clouds
1:35 PM 83.5 °F 83.4 °F 59.4 °F 44% 29.86 in 10.0 mi South 11.5 mph - N/A   Clear
2:15 PM 84.4 °F 84.0 °F 59.2 °F 42% 29.85 in 10.0 mi South 8.1 mph 17.3 mph N/A   Clear
2:35 PM 85.1 °F 84.6 °F 59.0 °F 41% 29.85 in 10.0 mi South 9.2 mph 17.3 mph N/A   Clear
2:55 PM 85.8 °F 85.2 °F 58.8 °F 40% 29.84 in 10.0 mi SSE 15.0 mph 18.4 mph N/A   Clear
3:15 PM 85.3 °F 84.8 °F 59.4 °F 41% 29.84 in 10.0 mi SSE 8.1 mph - N/A   Clear
3:35 PM 86.0 °F 85.4 °F 59.2 °F 40% 29.84 in 10.0 mi South 15.0 mph 18.4 mph N/A   Clear
3:55 PM 86.7 °F 86.1 °F 59.0 °F 39% 29.84 in 10.0 mi SE 11.5 mph 21.9 mph N/A   Clear
4:15 PM 86.7 °F 86.1 °F 59.0 °F 39% 29.83 in 10.0 mi SSE 10.4 mph - N/A   Clear
4:35 PM 86.7 °F 86.1 °F 59.0 °F 39% 29.82 in 10.0 mi SSE 10.4 mph 19.6 mph N/A   Scattered Clouds
4:55 PM 86.5 °F 85.9 °F 59.0 °F 39% 29.82 in 10.0 mi SSE 9.2 mph 16.1 mph N/A   Clear
5:15 PM 86.7 °F 86.1 °F 59.0 °F 39% 29.82 in 10.0 mi SSE 13.8 mph - N/A   Clear
5:35 PM 86.5 °F 85.9 °F 59.0 °F 39% 29.82 in 10.0 mi SE 10.4 mph - N/A   Clear
5:55 PM 86.2 °F 85.4 °F 58.6 °F 39% 29.82 in 10.0 mi SSE 15.0 mph - N/A   Clear
6:15 PM 86.0 °F 85.2 °F 58.6 °F 39% 29.82 in 10.0 mi SSE 11.5 mph - N/A   Clear
6:35 PM 85.1 °F 84.6 °F 58.6 °F 41% 29.81 in 10.0 mi SSE 11.5 mph 18.4 mph N/A   Clear
6:55 PM 84.7 °F 84.2 °F 58.6 °F 41% 29.81 in 10.0 mi SSE 11.5 mph 18.4 mph N/A   Clear
7:15 PM 84.2 °F 84.0 °F 59.5 °F 43% 29.81 in 10.0 mi SSE 10.4 mph - N/A   Clear
7:35 PM 83.3 °F 83.2 °F 59.0 °F 44% 29.81 in 10.0 mi SSE 9.2 mph - N/A   Clear
7:55 PM 82.4 °F 82.5 °F 58.8 °F 45% 29.81 in 10.0 mi SSE 11.5 mph - N/A   Clear
8:15 PM 81.3 °F 81.7 °F 59.4 °F 47% 29.82 in 10.0 mi SSE 9.2 mph - N/A   Clear
8:35 PM 80.1 °F 80.8 °F 59.5 °F 49% 29.83 in 10.0 mi SSE 8.1 mph - N/A   Clear
8:55 PM 79.0 °F - 59.9 °F 52% 29.84 in 10.0 mi SSE 9.2 mph - N/A   Clear
9:15 PM 78.1 °F - 60.1 °F 54% 29.86 in 10.0 mi SSE 8.1 mph - N/A   Clear
9:35 PM 77.7 °F - 60.3 °F 55% 29.87 in 10.0 mi SE 9.2 mph - N/A   Clear
9:55 PM 76.6 °F - 60.4 °F 57% 29.87 in 10.0 mi SSE 10.4 mph - N/A   Clear
10:15 PM 76.3 °F - 60.8 °F 59% 29.87 in 10.0 mi SE 9.2 mph - N/A   Clear
10:35 PM 75.4 °F - 60.8 °F 60% 29.88 in 10.0 mi SSE 8.1 mph - N/A   Clear
10:55 PM 74.1 °F - 60.8 °F 63% 29.88 in 10.0 mi SSE 9.2 mph - N/A   Clear
11:35 PM 72.9 °F - 60.8 °F 66% 29.88 in 10.0 mi SSE 10.4 mph - N/A   Clear
11:55 PM 72.1 °F - 60.8 °F 67% 29.88 in 10.0 mi SSE 10.4 mph - N/A   Clear